Change the Weather History Date:

Saturday, December 22, 2012

  Actual Average Record
Temperature  
Mean Temperature 49 °F -  
Max Temperature 59 °F 62 °F 84 °F (2013)
Min Temperature 37 °F 44 °F 29 °F (1976)
Degree Days  
Heating Degree Days 16    
Moisture  
Dew Point 23 °F    
Average Humidity 43    
Maximum Humidity 79    
Minimum Humidity 24    
Precipitation  
Precipitation 0.00 in - - ()
Sea Level Pressure  
Sea Level Pressure 30.23 in    
Wind  
Wind Speed 9 mph (WNW)    
Max Wind Speed 15 mph    
Max Gust Speed 23 mph    
Visibility 10 miles    
Events      
Averages and records for this station are not official NWS values.
T = Trace of Precipitation, MM = Missing Value Source: NWS Daily Summary

Daily Weather History Graph

Daily Weather History Graph

Search for Another Location

Airport or City:

Trip Planner

Search our weather history database for the weather conditions in past years. The results will help you decide how hot, cold, wet, or windy it might be!

Date:

Astronomy

Dec. 22, 2012 Rise Set
Actual Time 7:17 AM EST 5:30 PM EST
Civil Twilight 6:51 AM EST 5:57 PM EST
Nautical Twilight 6:21 AM EST 6:27 PM EST
Astronomical Twilight 5:52 AM EST 6:56 PM EST
Moon 1:36 PM EST (12/22) 2:14 AM EST (12/22)
Length of Visible Light 11h 05m
Length of Day
10h 13m
Waxing Gibbous, 73% of the Moon is Illuminated
Dec 22
Waxing Gibbous
Dec 28
Full
Jan 4
Last Quarter
Jan 11
New
Jan 18
First Quarter

Hourly Weather History & Observations

Time (EST) Temp. Windchill Dew Point Humidity Pressure Visibility Wind Dir Wind Speed Gust Speed Precip Events Conditions
12:58 AM 44.1 °F 38.1 °F 18.0 °F 35% 30.19 in 10.0 mi WNW 11.5 mph 18.4 mph N/A   Clear
1:58 AM 43.0 °F 36.4 °F 18.0 °F 37% 30.19 in 10.0 mi West 12.7 mph - N/A   Clear
2:58 AM 43.0 °F 36.8 °F 18.0 °F 37% 30.19 in 10.0 mi WNW 11.5 mph - N/A   Clear
3:58 AM 42.1 °F 35.7 °F 18.0 °F 38% 30.19 in 10.0 mi WNW 11.5 mph 23.0 mph N/A   Clear
4:58 AM 41.0 °F 34.3 °F 18.0 °F 40% 30.19 in 10.0 mi WNW 11.5 mph 20.7 mph N/A   Clear
5:58 AM 39.9 °F 33.4 °F 18.0 °F 41% 30.20 in 10.0 mi WNW 10.4 mph - N/A   Clear
6:58 AM 39.0 °F 32.8 °F 19.9 °F 46% 30.23 in 10.0 mi WNW 9.2 mph - N/A   Clear
7:58 AM 39.0 °F 32.8 °F 21.0 °F 49% 30.25 in 10.0 mi WNW 9.2 mph 16.1 mph N/A   Clear
8:58 AM 42.1 °F 34.5 °F 19.9 °F 41% 30.27 in 10.0 mi NW 15.0 mph 19.6 mph N/A   Clear
9:58 AM 46.0 °F 40.6 °F 19.0 °F 34% 30.28 in 10.0 mi WNW 11.5 mph - N/A   Clear
10:58 AM 48.0 °F - 19.9 °F 33% 30.28 in 10.0 mi WNW 9.2 mph - N/A   Clear
11:58 AM 52.0 °F - 21.9 °F 31% 30.26 in 10.0 mi WSW 8.1 mph - N/A   Clear
12:58 PM 55.0 °F - 19.0 °F 24% 30.24 in 10.0 mi WNW 10.4 mph - N/A   Clear
1:58 PM 57.9 °F - 21.0 °F 24% 30.21 in 10.0 mi WNW 8.1 mph - N/A   Clear
2:58 PM 59.0 °F - 23.0 °F 25% 30.20 in 10.0 mi WNW 6.9 mph - N/A   Clear
3:58 PM 59.0 °F - 21.9 °F 24% 30.21 in 10.0 mi NW 10.4 mph - N/A   Clear
4:58 PM 57.0 °F - 24.1 °F 28% 30.22 in 10.0 mi WNW 3.5 mph - N/A   Clear
5:58 PM 53.1 °F - 26.1 °F 35% 30.22 in 10.0 mi WNW 5.8 mph - N/A   Clear
6:58 PM 46.0 °F 44.8 °F 34.0 °F 63% 30.23 in 10.0 mi West 3.5 mph - N/A   Clear
7:58 PM 46.9 °F - 30.9 °F 54% 30.25 in 10.0 mi West 3.5 mph - N/A   Clear
8:58 PM 43.0 °F - 33.1 °F 68% 30.26 in 10.0 mi Calm Calm - N/A   Clear
9:58 PM 43.0 °F 40.3 °F 32.0 °F 65% 30.26 in 10.0 mi WNW 4.6 mph - N/A   Clear
10:58 PM 39.9 °F - 32.0 °F 73% 30.27 in 10.0 mi Calm Calm - N/A   Clear
11:58 PM 37.9 °F - 32.0 °F 79% 30.26 in 10.0 mi Calm Calm - N/A   Clear